[[{"header":{"parameterUnit":"m.s-1","parameterCategory":1,"la1":30.2991,"la2":30.254,"lo1":-89.0895,"lo2":-89.0444,"dy":0.0017,"dx":0.0017,"nx":28,"ny":28,"refTime":"2023-04-03T21:00:00:Z","depth":0,"parameterNumber":2,"parameterNumberName":"U-component_of_WINDS"},"data":[0,0,0,0,0,0,0,0,0,0,0,0,0,0,0,0,0,0,0,0,0,0,0,0,0,0,0,0,0,0,0,0,0,0,0,0,0,0,0,0,0,0,0,0,0,0,0,0,0,0,0,0,0,0,0,0,0,0,2.1602,2.1603,0,2.1629,2.163,2.163,2.1633,2.1633,2.1633,2.1632,2.1658,2.1658,2.1659,0,0,0,0,0,0,0,0,0,0,0,0,0,2.1554,2.1555,2.1602,2.1603,2.1603,2.1629,2.163,2.163,2.1633,2.1633,2.1633,2.1632,2.1657,2.1658,2.1659,0,0,0,0,0,0,0,0,0,0,0,0,0,2.1577,2.1555,2.1602,2.1608,2.1609,2.1629,2.163,2.163,2.1633,2.1633,2.1632,2.1632,2.1657,2.1658,2.166,2.1676,0,0,2.1664,2.1664,0,0,0,0,0,0,0,0,2.1576,2.1579,2.1607,2.1608,2.1609,2.1628,2.1622,2.1645,2.1633,2.1624,2.1632,2.1632,2.1648,2.165,2.1656,2.1677,2.1678,2.1664,2.1665,2.1665,2.1666,0,0,0,0,0,0,0,2.1574,2.1578,2.1613,2.1607,2.1608,2.1609,2.1612,2.1626,2.1638,2.1625,2.1625,2.1628,2.1648,2.1654,2.1656,2.1678,2.1664,2.1665,2.1666,2.1666,2.1717,2.1717,0,0,0,0,0,0,2.1572,2.1576,2.1612,2.1614,2.1591,2.161,2.1613,2.1622,2.1637,2.1639,2.1629,2.1628,2.1652,2.1655,2.1657,2.1679,2.1665,2.1667,2.1667,2.1716,2.1717,2.1718,0,0,0,0,0,0,2.1571,2.1575,2.1611,2.1595,2.16,2.1612,2.1621,2.1622,2.1629,2.164,2.1642,2.1633,2.1652,2.1655,2.1672,2.168,2.1667,2.1668,2.1716,2.1717,2.1717,2.1721,0,0,0,0,0,0,2.1569,2.1575,2.1581,2.1595,2.1601,2.1625,2.1621,2.1623,2.1631,2.1631,2.1645,2.1647,2.1652,2.167,2.1673,2.1681,2.167,2.1715,2.1716,2.1717,2.172,2.1722,2.1723,0,0,0,0,0,2.1568,2.1579,2.1581,2.1585,2.1609,2.1626,2.1629,2.1635,2.1632,2.1638,2.1646,2.1646,2.1678,2.1671,2.1675,2.1684,2.1715,2.1716,2.1717,2.172,2.1722,2.1723,0,0,0,0,0,0,2.1564,2.1581,2.1583,2.16,2.1612,2.1626,2.1634,2.1637,2.1648,2.1648,2.1655,2.1658,2.1674,2.1681,2.1673,2.1702,2.1696,2.1698,2.1697,2.1699,2.17,2.1698,2.1671,0,0,0,0,0,2.1565,2.1578,2.1592,2.1606,2.1612,2.1622,2.163,2.1634,2.1646,2.165,2.1659,2.167,2.1683,2.1691,2.1703,2.1721,2.1725,2.1729,2.1731,2.1732,2.1734,2.1746,2.1748,2.1721,2.1721,2.1721,0,0,2.1567,2.1579,2.1586,2.1606,2.1615,2.1628,2.1626,2.164,2.165,2.1652,2.1669,2.1676,2.1689,2.1707,2.1715,2.1713,2.1742,2.1734,2.1734,2.1735,2.1747,2.175,2.1752,2.1722,2.1722,2.1722,0,0,2.1579,2.1588,2.1602,2.1612,2.1627,2.1634,2.1638,2.1653,2.1658,2.1675,2.1678,2.169,2.1712,2.1722,2.1729,2.1748,2.1749,2.1752,2.1759,2.1771,2.1773,2.1775,2.1783,2.1786,2.1753,2.1753,2.1753,0,2.1579,2.16,2.1608,2.1623,2.1632,2.1637,2.1651,2.166,2.1678,2.1684,2.1681,2.171,2.1719,2.174,2.1745,2.1751,2.1756,2.175,2.1772,2.1774,2.1776,2.1784,2.1787,2.1753,2.1753,2.1753,2.1753,0,2.1601,2.1616,2.1625,2.1644,2.1654,2.1668,2.1679,2.1689,2.1693,2.17,2.1719,2.173,2.1746,2.1751,2.1754,2.1774,2.1772,2.1771,2.1765,2.1779,2.1786,2.1789,2.1754,2.1754,2.1754,2.1754,0,0,2.1609,2.1635,2.1638,2.1648,2.1666,2.1677,2.1693,2.1709,2.1718,2.1731,2.1744,2.1764,2.1763,2.1772,2.1777,2.1787,2.1803,2.1784,2.1785,2.1788,2.1827,2.1829,2.1832,2.1804,2.1805,2.1805,2.1827,0,2.1623,2.1651,2.166,2.1684,2.1698,2.1704,2.1718,2.1731,2.1739,2.1752,2.1761,2.1776,2.1773,2.1779,2.1789,2.1799,2.1811,2.1797,2.1817,2.1818,2.1814,2.1836,2.1837,2.1856,2.1829,2.183,2.183,0,2.1643,2.1658,2.1684,2.1703,2.1709,2.1721,2.1739,2.1751,2.1767,2.1772,2.1784,2.1788,2.1805,2.1799,2.1823,2.1814,2.1823,2.1829,2.183,2.1832,2.1825,2.1839,2.1862,2.1865,2.1834,2.1834,2.1834,0,2.1647,2.1674,2.1694,2.1702,2.1724,2.1733,2.1742,2.1758,2.1768,2.1783,2.179,2.1807,2.1816,2.1829,2.1838,2.1832,2.1862,2.1856,2.1867,2.1867,2.1872,2.1872,2.1898,2.1877,2.1877,2.1877,2.1877,0,2.1663,2.1678,2.1697,2.1708,2.1727,2.1738,2.1755,2.1765,2.1779,2.1793,2.1799,2.1812,2.1824,2.1838,2.1846,2.1865,2.1869,2.1874,2.1876,2.1874,2.1873,2.188,2.1879,2.1878,2.1878,2.1878,2.1877,0,2.167,2.1683,2.1705,2.1726,2.1731,2.1744,2.1762,2.1774,2.1783,2.1801,2.1806,2.1821,2.1839,2.185,2.1872,2.1877,2.1899,2.19,2.1895,2.1896,2.1907,2.1906,2.1938,2.1943,2.1918,2.1918,2.1919,0,2.1679,2.1692,2.1715,2.1726,2.1736,2.1752,2.1764,2.1776,2.1788,2.1808,2.1818,2.1837,2.1853,2.1881,2.1894,2.1912,2.1913,2.1924,2.1916,2.1914,2.1915,2.1914,2.1916,2.1925,2.1925,2.1925,2.1925,0,2.1694,2.1701,2.1717,2.1737,2.1752,2.1767,2.1783,2.1791,2.1806,2.1819,2.1839,2.1851,2.1876,2.1895,2.1914,2.1924,2.1927,2.1928,2.1932,2.193,2.1926,2.193,2.1899,2.1927,2.1927,2.1926,2.1926,2.1926,2.1703,2.1715,2.1735,2.1754,2.1768,2.1783,2.1796,2.1809,2.1826,2.1848,2.1854,2.1875,2.1892,2.1919,2.1929,2.1946,2.1944,2.1949,2.195,2.1952,2.1953,2.1924,2.1949,2.1949,2.1949,2.1949,2.1949,0,2.1719,2.1733,2.175,2.1774,2.1789,2.1793,2.1812,2.1824,2.1843,2.1859,2.1876,2.19,2.1919,2.1934,2.1954,2.1965,2.1967,2.1969,2.1969,2.1971,2.1952,2.1948,2.1967,2.1967,2.1967,2.1967,2.1967,2.1967,2.1729,2.1751,2.1761,2.179,2.1803,2.1825,2.1836,2.185,2.1864,2.1891,2.1908,2.1918,2.1934,2.1956,2.1974,2.1978,2.1986,2.1988,2.1993,2.1974,2.1972,2.1971,2.1966,2.199,2.199,2.2011,2.2011,2.2011]},{"header":{"parameterUnit":"m.s-1","parameterCategory":1,"la1":30.2991,"la2":30.254,"lo1":-89.0895,"lo2":-89.0444,"dy":0.0017,"dx":0.0017,"nx":28,"ny":28,"refTime":"2023-04-03T21:00:00:Z","depth":0,"parameterNumber":3,"parameterNumberName":"V-component_of_WINDS"},"data":[0,0,0,0,0,0,0,0,0,0,0,0,0,0,0,0,0,0,0,0,0,0,0,0,0,0,0,0,0,0,0,0,0,0,0,0,0,0,0,0,0,0,0,0,0,0,0,0,0,0,0,0,0,0,0,0,0,0,5.3266,5.3265,0,5.3179,5.3178,5.3177,5.311,5.3109,5.3109,5.3108,5.3014,5.3012,5.301,0,0,0,0,0,0,0,0,0,0,0,0,0,5.337,5.3368,5.3266,5.3265,5.3264,5.318,5.3178,5.3177,5.311,5.3109,5.3109,5.3108,5.3014,5.3012,5.301,0,0,0,0,0,0,0,0,0,0,0,0,0,5.3308,5.3368,5.3267,5.3221,5.3216,5.318,5.3178,5.3177,5.311,5.3109,5.3108,5.3107,5.3015,5.3012,5.3009,5.301,0,0,5.3,5.2999,0,0,0,0,0,0,0,0,5.3312,5.3304,5.3228,5.3224,5.3218,5.3155,5.318,5.3121,5.311,5.315,5.3108,5.3107,5.3061,5.3054,5.304,5.3006,5.3002,5.3,5.2998,5.2997,5.2996,0,0,0,0,0,0,0,5.3316,5.3308,5.3232,5.3227,5.3221,5.3203,5.3193,5.3169,5.3112,5.3147,5.3142,5.3132,5.3058,5.3043,5.3037,5.3001,5.3,5.2998,5.2996,5.2995,5.2965,5.2966,0,0,0,0,0,0,5.3328,5.3312,5.3235,5.3229,5.3264,5.3202,5.3191,5.3176,5.3112,5.3101,5.3133,5.313,5.3048,5.3041,5.3034,5.3033,5.2997,5.2995,5.2993,5.2964,5.2965,5.2966,0,0,0,0,0,0,5.3331,5.3322,5.3238,5.3269,5.3257,5.3201,5.3185,5.3175,5.316,5.3102,5.3091,5.3129,5.3047,5.3038,5.3018,5.3028,5.2993,5.2991,5.2963,5.2965,5.2966,5.303,0,0,0,0,0,0,5.3334,5.3323,5.3324,5.327,5.3256,5.3225,5.3185,5.3174,5.3156,5.315,5.3095,5.3085,5.3046,5.3022,5.3015,5.3024,5.2988,5.2962,5.2964,5.2965,5.3026,5.3033,5.3039,0,0,0,0,0,5.3338,5.3344,5.3324,5.3315,5.3256,5.3226,5.3218,5.3175,5.3157,5.3157,5.312,5.3086,5.3028,5.3021,5.3012,5.302,5.2961,5.2963,5.2965,5.3024,5.3032,5.3039,0,0,0,0,0,0,5.3398,5.3336,5.3314,5.3302,5.327,5.3215,5.3213,5.3184,5.3155,5.3151,5.3096,5.3084,5.3071,5.3042,5.3036,5.3019,5.299,5.2991,5.3038,5.3045,5.3051,5.3059,5.2986,0,0,0,0,0,5.3411,5.3393,5.3339,5.3334,5.3319,5.3269,5.3254,5.3224,5.3188,5.3174,5.3135,5.31,5.3074,5.3057,5.303,5.3021,5.3009,5.3023,5.3029,5.3034,5.3036,5.3031,5.3037,5.2973,5.2973,5.2973,0,0,5.3435,5.3399,5.3391,5.3345,5.3317,5.33,5.3258,5.324,5.3227,5.317,5.315,5.3121,5.3077,5.3064,5.3056,5.3041,5.3051,5.3037,5.3042,5.304,5.3034,5.304,5.3046,5.2975,5.2975,5.2974,0,0,5.3473,5.3443,5.3437,5.341,5.3368,5.3335,5.3334,5.3283,5.3262,5.3242,5.32,5.3181,5.3137,5.3109,5.3088,5.3117,5.3085,5.3109,5.3142,5.3138,5.3143,5.3148,5.316,5.3164,5.311,5.311,5.311,0,5.3508,5.3482,5.3437,5.3423,5.3405,5.3355,5.3348,5.3323,5.3274,5.3262,5.3245,5.3191,5.3157,5.3138,5.3146,5.313,5.3127,5.3115,5.3146,5.315,5.3153,5.3164,5.3169,5.3113,5.3113,5.3113,5.3112,0,5.3529,5.3511,5.3511,5.3468,5.3449,5.3439,5.3392,5.3378,5.3349,5.3318,5.3298,5.3257,5.3222,5.3214,5.3184,5.3191,5.3183,5.3157,5.3128,5.3164,5.3173,5.3177,5.3118,5.3117,5.3116,5.3115,0,0,5.3602,5.3536,5.3537,5.3518,5.3468,5.3453,5.344,5.3408,5.3398,5.3365,5.3354,5.3318,5.3295,5.3272,5.3239,5.3236,5.3263,5.321,5.3208,5.3223,5.327,5.3291,5.3297,5.3242,5.3242,5.3243,5.3274,0,5.3633,5.361,5.357,5.356,5.3543,5.3496,5.3485,5.3453,5.3424,5.3404,5.337,5.3347,5.3317,5.3303,5.3298,5.3261,5.3272,5.3258,5.3231,5.323,5.3246,5.3301,5.3323,5.3355,5.3277,5.3278,5.3278,0,5.3666,5.364,5.3629,5.3583,5.3575,5.3566,5.3534,5.3516,5.3479,5.3457,5.3434,5.3398,5.3382,5.3354,5.3331,5.3323,5.3309,5.3289,5.3289,5.3287,5.3258,5.3302,5.3364,5.337,5.3283,5.3283,5.3282,0,5.3724,5.3685,5.3674,5.3658,5.3604,5.3599,5.3576,5.3538,5.3522,5.3493,5.3482,5.3451,5.3434,5.341,5.3367,5.3351,5.335,5.3318,5.3332,5.3333,5.3335,5.3336,5.3398,5.3323,5.3323,5.3323,5.3323,0,5.3764,5.3759,5.37,5.3693,5.3687,5.364,5.3635,5.3607,5.3574,5.356,5.3516,5.3504,5.3447,5.3428,5.3394,5.3381,5.3373,5.3356,5.3347,5.3361,5.3364,5.3352,5.335,5.3324,5.3324,5.3323,5.3323,0,5.3828,5.3787,5.3773,5.3723,5.3711,5.3709,5.3665,5.3657,5.3625,5.3609,5.3602,5.3551,5.3527,5.3482,5.3443,5.3421,5.3416,5.3399,5.343,5.3425,5.3442,5.3442,5.3501,5.3507,5.3427,5.3427,5.3428,0,5.3857,5.3853,5.3804,5.3794,5.3773,5.3755,5.3739,5.3692,5.3677,5.3636,5.3633,5.3605,5.3582,5.3545,5.3504,5.3475,5.3459,5.3481,5.3454,5.3469,5.3462,5.3464,5.3464,5.3488,5.3489,5.349,5.3491,0,5.3915,5.3895,5.3875,5.3849,5.3832,5.3807,5.3781,5.3774,5.3721,5.3706,5.3682,5.3664,5.3627,5.3601,5.3566,5.354,5.3508,5.35,5.3502,5.3517,5.3536,5.3529,5.3449,5.3499,5.3498,5.3497,5.3497,5.3497,5.3964,5.3959,5.3925,5.3904,5.388,5.3857,5.3847,5.3815,5.3795,5.3763,5.3736,5.3715,5.3678,5.3629,5.3605,5.3588,5.3572,5.3574,5.3575,5.3577,5.3584,5.3538,5.3581,5.358,5.358,5.358,5.358,0,5.4021,5.3997,5.3979,5.3945,5.3929,5.39,5.3869,5.3858,5.384,5.381,5.3788,5.3762,5.3736,5.3694,5.3665,5.3659,5.3643,5.3653,5.3654,5.365,5.3598,5.3601,5.3667,5.3667,5.3667,5.3667,5.3667,5.3667,5.4049,5.4041,5.4018,5.3997,5.3972,5.3953,5.3938,5.3917,5.3893,5.3866,5.3846,5.3819,5.3783,5.3752,5.3728,5.3716,5.3708,5.3724,5.3707,5.3661,5.3653,5.3645,5.3647,5.3722,5.3722,5.376,5.376,5.376]}]]